FW8347 Weather Reports


time (UTC)temp
C
wind
direction
speed
KPH
gust
KPH
rain 1hr
cm
rain 24hr
cm
rain mn
cm
humidity
%
barometer
mb
20260903211552 26 0 0.0 0.0 0.00 0.00 0.00 77 1012.4
20260903210140 26 0 0.0 3.2 0.00 0.00 0.00 76 1012.4
20260903204602 27 0 0.0 4.8 0.00 0.00 0.00 74 1012.7
20260903203052 28 28 3.2 4.8 0.00 0.00 0.00 72 1012.7
20260903201548 28 28 3.2 6.4 0.00 0.00 0.00 73 1012.8
20260903200115 28 28 1.6 8.0 0.00 0.00 0.00 73 1012.8
20260903194555 28 21 1.6 6.4 0.00 0.00 0.00 73 1012.9
20260903193057 29 22 4.8 11.3 0.00 0.00 0.00 71 1013.0
20260903191600 30 24 4.8 11.3 0.00 0.00 0.00 69 1012.8
20260903190046 30 22 1.6 6.4 0.00 0.00 0.00 69 1013.0
20260903184558 30 30 0.0 8.0 0.00 0.00 0.00 70 1013.2
20260903183057 30 0 3.2 8.0 0.00 0.00 0.00 72 1013.2
20260903181556 30 350 1.6 6.4 0.00 0.00 0.00 72 1013.3
20260903180058 30 350 1.6 6.4 0.00 0.00 0.00 74 1013.2
20260903174553 29 350 4.8 8.0 0.00 0.00 0.00 71 1013.4
20260903173051 30 350 1.6 8.0 0.00 0.00 0.00 71 1013.3
20260903171612 30 350 3.2 8.0 0.00 0.00 0.00 70 1013.3
20260903170058 30 350 4.8 9.7 0.00 0.00 0.00 70 1013.4
20260903164554 30 355 3.2 8.0 0.00 0.00 0.00 72 1013.4
20260903163050 30 326 1.6 8.0 0.00 0.00 0.00 73 1013.6
20260903161546 29 333 3.2 8.0 0.00 0.00 0.00 73 1013.5
20260903160054 29 333 1.6 8.0 0.00 0.00 0.00 74 1013.9
20260903154548 28 344 1.6 8.0 0.00 0.00 0.00 75 1013.9
20260903153108 28 350 4.8 8.0 0.00 0.00 0.00 76 1014.0
20260903151608 27 321 1.6 6.4 0.00 0.00 0.00 79 1014.0
20260903150100 26 321 3.2 8.0 0.00 0.00 0.00 81 1014.0
20260903144551 26 321 3.2 8.0 0.00 0.00 0.00 83 1014.0
20260903143056 25 328 4.8 8.0 0.00 0.00 0.00 84 1014.1
20260903141556 24 313 4.8 8.0 0.00 0.00 0.00 86 1013.9
20260903140103 23 329 3.2 9.7 0.00 0.00 0.00 88 1013.9
20260903134548 23 335 4.8 8.0 0.00 0.00 0.00 89 1013.8
20260903133048 22 341 1.6 6.4 0.00 0.00 0.00 89 1013.9
20260903131608 22 314 1.6 12.9 0.00 0.00 0.00 89 1013.9
20260903130052 22 265 6.4 19.3 0.00 0.00 0.00 90 1014.0
20260903124600 22 302 3.2 14.5 0.00 0.00 0.00 90 1013.9
20260903123046 22 258 4.8 14.5 0.00 0.00 0.00 91 1013.9
20260903121555 21 263 6.4 12.9 0.00 0.00 0.00 91 1013.7
20260903120100 21 262 6.4 14.5 0.00 0.00 0.00 91 1013.4
20260903114603 21 261 6.4 12.9 0.00 0.00 0.00 91 1013.4
20260903113050 21 232 8.0 16.1 0.00 0.00 0.00 91 1013.2
20260903111557 21 243 6.4 14.5 0.00 0.00 0.00 91 1013.1
20260903110052 21 217 8.0 14.5 0.00 0.00 0.00 92 1012.9
20260903104550 20 253 3.2 8.0 0.00 0.00 0.00 92 1012.8
20260903103046 20 225 3.2 11.3 0.00 0.00 0.00 93 1012.7
20260903101601 20 200 4.8 11.3 0.00 0.00 0.00 93 1012.5
20260903100055 20 193 6.4 9.7 0.00 0.00 0.00 93 1012.5
20260903094616 20 190 6.4 9.7 0.00 0.00 0.00 94 1012.5
20260903093056 20 200 6.4 9.7 0.00 0.00 0.00 94 1012.5
20260903091549 20 219 6.4 8.0 0.00 0.00 0.00 94 1012.5
20260903090100 20 0 0.0 6.4 0.00 0.00 0.00 93 1012.5
20260903084559 20 219 3.2 6.4 0.00 0.00 0.00 94 1012.5
20260903083053 20 219 4.8 6.4 0.00 0.00 0.00 94 1012.6
20260903081551 20 219 1.6 6.4 0.00 0.00 0.00 94 1012.5
20260903080058 20 219 0.0 4.8 0.00 0.00 0.00 93 1012.5
20260903074605 20 219 3.2 4.8 0.00 0.00 0.00 93 1012.3
20260903073056 20 219 1.6 4.8 0.00 0.00 0.00 93 1012.4
20260903071552 20 219 1.6 4.8 0.00 0.00 0.00 93 1012.6
20260903070051 20 219 1.6 6.4 0.00 0.00 0.00 93 1012.7
20260903064554 20 219 1.6 6.4 0.00 0.00 0.00 93 1012.7
20260903063046 20 219 4.8 6.4 0.00 0.00 0.00 93 1012.7
20260903061553 20 219 3.2 6.4 0.00 0.00 0.00 92 1012.7
20260903060055 20 219 3.2 6.4 0.00 0.00 0.00 92 1012.7
20260903054547 20 219 1.6 8.0 0.00 0.00 0.00 91 1012.9
20260903053102 20 219 3.2 6.4 0.00 0.00 0.00 91 1012.5
20260903051559 20 219 1.6 8.0 0.00 0.00 0.00 91 1012.5
20260903050100 21 219 0.0 8.0 0.00 0.00 0.00 91 1012.2
20260903044553 21 219 0.0 4.8 0.00 0.00 0.00 91 1012.2
20260903043057 21 219 3.2 17.7 0.00 0.00 0.00 90 1011.6
20260903041610 21 184 11.3 17.7 0.00 0.00 0.00 90 1011.7
20260903040117 21 172 9.7 19.3 0.00 0.00 0.00 90 1011.9
20260903034551 21 219 11.3 19.3 0.00 0.00 0.00 90 1012.0
20260903033057 21 248 11.3 24.1 0.00 0.00 0.00 89 1012.2
20260903031547 21 214 12.9 25.7 0.00 0.00 0.00 90 1012.0
20260903030057 21 234 12.9 25.7 0.00 0.00 0.00 90 1012.1
20260903024553 21 201 12.9 27.4 0.00 0.00 0.00 89 1012.1
20260903023049 21 230 19.3 29.0 0.00 0.00 0.00 89 1012.6
20260903021547 21 197 19.3 29.0 0.00 0.00 0.00 90 1011.7
20260903020046 21 222 17.7 27.4 0.00 0.00 0.00 91 1011.8
20260903014556 21 186 16.1 29.0 0.00 0.00 0.00 92 1011.7
20260903013050 20 196 17.7 32.2 0.00 0.00 0.00 92 1012.0
20260903011552 20 193 12.9 22.5 0.00 0.00 0.00 92 1012.7
20260903010047 20 186 14.5 22.5 0.00 0.00 0.00 92 1013.5
20260903004558 20 232 9.7 22.5 0.00 0.00 0.00 92 1013.0
20260903003052 20 184 14.5 22.5 0.00 0.00 0.00 91 1012.3
20260903001601 20 211 6.4 16.1 0.00 0.00 0.00 91 1013.6
20260902234553 23 252 25.7 45.1 0.00 0.00 0.00 87 1014.7
20260902233051 24 84 6.4 12.9 0.00 0.00 0.00 89 1010.9
20260902231549 25 144 3.2 6.4 0.00 0.00 0.00 89 1011.9
20260902230114 25 144 1.6 4.8 0.00 0.00 0.00 89 1011.9
20260902224558 25 144 1.6 3.2 0.00 0.00 0.00 86 1012.2
20260902223053 26 0 0.0 0.0 0.00 0.00 0.00 87 1011.7
20260902221601 26 0 0.0 0.0 0.00 0.00 0.00 87 1011.8
20260902220057 26 0 0.0 0.0 0.00 0.00 0.00 86 1011.7
20260902214548 25 0 0.0 4.8 0.00 0.00 0.00 86 1012.0
20260902213048 25 144 4.8 11.3 0.00 0.00 0.00 86 1012.0